User: anonymous   Login
Location: Unspecified
(0.0000°N, 0.0000°E)
Time: 18:40:31
(UTC+01:00)
Language:

Resurs 1-3 - Orbit

View from above orbital plane
View from above orbital plane
View from above satellite
View from above satellite

Ground track
Ground track

The orbit data is extracted from the following two-line orbital elements,

1 23342U 94074A   17322.70854895 +.00000107 +00000-0 +21451-4 0  9994
2 23342 098.0609 001.5368 0001131 067.0083 293.1247 14.79301781240354
Epoch (UTC): 18 November 2017 17:00:18
Eccentricity: 0.0001131
inclination: 98.0609°
perigee height: 631 km
apogee height: 632 km
right ascension of ascending node: 1.5368°
argument of perigee: 67.0083°
revolutions per day: 14.79301781
mean anomaly at epoch: 293.1247°
orbit number at epoch: 24035

The dashed part of the orbit path shows where the satellite is in the earth's shadow,  

DLR